| time (UTC) | temp C | wind direction | speed KPH | gust KPH | rain 1hr cm | rain 24hr cm | rain mn cm | humidity % | barometer mb |
| 20260506110047 | 17 | 17 | 1.6 | 20.9 | 0.00 | 0.00 | 0.00 | 69 | 1013.4 |
| 20260506104553 | 17 | 12 | 1.6 | 32.2 | 0.00 | 0.00 | 0.00 | 69 | 1013.1 |
| 20260506103041 | 17 | 13 | 4.8 | 35.4 | 0.00 | 0.00 | 0.00 | 70 | 1012.7 |
| 20260506101539 | 16 | 13 | 4.8 | 41.8 | 0.00 | 0.00 | 0.00 | 71 | 1013.1 |
| 20260506100041 | 16 | 13 | 0.0 | 8.0 | 0.00 | 0.00 | 0.00 | 72 | 1013.1 |
| 20260506094538 | 15 | 12 | 1.6 | 17.7 | 0.00 | 0.00 | 0.00 | 73 | 1012.9 |
| 20260506093036 | 15 | 13 | 3.2 | 32.2 | 0.00 | 0.00 | 0.00 | 73 | 1012.5 |
| 20260506091533 | 15 | 13 | 1.6 | 19.3 | 0.00 | 0.00 | 0.00 | 72 | 1012.8 |
| 20260506090038 | 15 | 12 | 0.0 | 19.3 | 0.00 | 0.00 | 0.00 | 71 | 1012.7 |
| 20260506084536 | 15 | 13 | 0.0 | 29.0 | 0.00 | 0.00 | 0.00 | 70 | 1012.5 |
| 20260506083031 | 15 | 13 | 0.0 | 19.3 | 0.00 | 0.00 | 0.00 | 69 | 1012.4 |
| 20260506081525 | 15 | 13 | 0.0 | 33.8 | 0.00 | 0.00 | 0.00 | 68 | 1011.8 |
| 20260506073022 | 15 | 13 | 3.2 | 30.6 | 0.00 | 0.00 | 0.00 | 68 | 1011.7 |
| 20260506071522 | 15 | 13 | 1.6 | 25.7 | 0.00 | 0.00 | 0.00 | 68 | 1011.6 |
| 20260506061517 | 15 | 13 | 1.6 | 27.4 | 0.00 | 0.00 | 0.00 | 68 | 1011.8 |
| 20260506044508 | 15 | 15 | 1.6 | 43.5 | 0.00 | 0.00 | 0.00 | 65 | 1011.7 |
| 20260506043006 | 16 | 12 | 4.8 | 35.4 | 0.00 | 0.00 | 0.00 | 65 | 1011.8 |
| 20260506041502 | 16 | 11 | 4.8 | 40.2 | 0.00 | 0.00 | 0.00 | 65 | 1011.6 |
| 20260506040058 | 16 | 15 | 4.8 | 40.2 | 0.00 | 0.00 | 0.00 | 64 | 1011.6 |
| 20260506034613 | 16 | 14 | 4.8 | 38.6 | 0.00 | 0.00 | 0.00 | 63 | 1011.5 |
| 20260506033054 | 16 | 13 | 6.4 | 30.6 | 0.00 | 0.00 | 0.00 | 62 | 1011.3 |
| 20260506031553 | 16 | 12 | 4.8 | 35.4 | 0.00 | 0.00 | 0.00 | 62 | 1011.3 |
| 20260506030048 | 16 | 11 | 1.6 | 33.8 | 0.00 | 0.00 | 0.00 | 62 | 1011.1 |
| 20260506024552 | 17 | 13 | 6.4 | 37.0 | 0.00 | 0.00 | 0.00 | 60 | 1011.3 |
| 20260506023055 | 17 | 13 | 3.2 | 37.0 | 0.00 | 0.00 | 0.00 | 59 | 1011.4 |
| 20260506021546 | 17 | 13 | 8.0 | 46.7 | 0.00 | 0.00 | 0.00 | 58 | 1011.1 |
| 20260506020045 | 17 | 13 | 1.6 | 40.2 | 0.00 | 0.00 | 0.00 | 57 | 1011.2 |
| 20260506014545 | 17 | 13 | 3.2 | 35.4 | 0.00 | 0.00 | 0.00 | 57 | 1011.0 |
| 20260506013043 | 17 | 13 | 4.8 | 38.6 | 0.00 | 0.00 | 0.00 | 55 | 1011.0 |
| 20260506011544 | 17 | 13 | 3.2 | 30.6 | 0.00 | 0.00 | 0.00 | 55 | 1011.0 |
| 20260506010053 | 18 | 13 | 3.2 | 35.4 | 0.00 | 0.00 | 0.00 | 52 | 1010.9 |
| 20260506004539 | 18 | 13 | 4.8 | 35.4 | 0.00 | 0.00 | 0.00 | 51 | 1010.6 |
| 20260506003039 | 17 | 15 | 3.2 | 32.2 | 0.00 | 0.00 | 0.00 | 50 | 1010.3 |
| 20260506001540 | 17 | 13 | 1.6 | 30.6 | 0.00 | 0.00 | 0.00 | 49 | 1010.2 |
| 20260506000037 | 17 | 13 | 3.2 | 27.4 | 0.00 | 0.00 | 0.00 | 48 | 1009.9 |
| 20260505234536 | 18 | 12 | 4.8 | 32.2 | 0.00 | 0.00 | 0.00 | 46 | 1009.8 |
| 20260505233044 | 17 | 11 | 0.0 | 6.4 | 0.00 | 0.00 | 0.00 | 46 | 1009.7 |
| 20260505231535 | 18 | 11 | 0.0 | 20.9 | 0.00 | 0.00 | 0.00 | 44 | 1009.7 |
| 20260505230040 | 18 | 12 | 0.0 | 20.9 | 0.00 | 0.00 | 0.00 | 43 | 1009.6 |
| 20260505224537 | 19 | 10 | 0.0 | 8.0 | 0.00 | 0.00 | 0.00 | 43 | 1009.6 |
| 20260505223033 | 20 | 10 | 0.0 | 4.8 | 0.00 | 0.00 | 0.00 | 41 | 1009.8 |
| 20260505221533 | 21 | 9 | 0.0 | 3.2 | 0.00 | 0.00 | 0.00 | 41 | 1010.0 |
| 20260505220031 | 21 | 11 | 0.0 | 4.8 | 0.00 | 0.00 | 0.00 | 41 | 1010.0 |
| 20260505214531 | 21 | 13 | 0.0 | 3.2 | 0.00 | 0.00 | 0.00 | 41 | 1009.8 |
| 20260505213031 | 22 | 11 | 0.0 | 19.3 | 0.00 | 0.00 | 0.00 | 40 | 1009.7 |
| 20260505211530 | 22 | 9 | 0.0 | 9.7 | 0.00 | 0.00 | 0.00 | 41 | 1009.7 |
| 20260505210030 | 23 | 9 | 0.0 | 6.4 | 0.00 | 0.00 | 0.00 | 42 | 1009.6 |
| 20260505204528 | 23 | 9 | 0.0 | 3.2 | 0.00 | 0.00 | 0.00 | 41 | 1009.3 |
| 20260505203031 | 24 | 15 | 0.0 | 9.7 | 0.00 | 0.00 | 0.00 | 37 | 1009.4 |
| 20260505201527 | 23 | 19 | 0.0 | 1.6 | 0.00 | 0.00 | 0.00 | 38 | 1009.3 |
| 20260505200025 | 23 | 15 | 0.0 | 14.5 | 0.00 | 0.00 | 0.00 | 37 | 1009.4 |
| 20260505194524 | 23 | 14 | 0.0 | 4.8 | 0.00 | 0.00 | 0.00 | 36 | 1009.6 |
| 20260505193022 | 23 | 16 | 0.0 | 32.2 | 0.00 | 0.00 | 0.00 | 36 | 1009.6 |
| 20260505191522 | 23 | 13 | 1.6 | 27.4 | 0.00 | 0.00 | 0.00 | 38 | 1009.6 |
| 20260505190026 | 23 | 13 | 1.6 | 19.3 | 0.00 | 0.00 | 0.00 | 38 | 1009.6 |
| 20260505184519 | 23 | 10 | 6.4 | 33.8 | 0.00 | 0.00 | 0.00 | 38 | 1009.4 |
| 20260505183018 | 23 | 9 | 1.6 | 25.7 | 0.00 | 0.00 | 0.00 | 38 | 1009.5 |
| 20260505181518 | 23 | 10 | 0.0 | 17.7 | 0.00 | 0.00 | 0.00 | 38 | 1009.5 |
| 20260505180014 | 23 | 5 | 1.6 | 24.1 | 0.00 | 0.00 | 0.00 | 39 | 1009.3 |
| 20260505174512 | 23 | 10 | 0.0 | 9.7 | 0.00 | 0.00 | 0.00 | 40 | 1009.6 |
| 20260505173011 | 23 | 10 | 0.0 | 25.7 | 0.00 | 0.00 | 0.00 | 41 | 1009.7 |
| 20260505171508 | 22 | 11 | 1.6 | 24.1 | 0.00 | 0.00 | 0.00 | 40 | 1009.8 |
| 20260505170014 | 22 | 11 | 0.0 | 14.5 | 0.00 | 0.36 | 0.00 | 43 | 1009.8 |
| 20260505164502 | 22 | 11 | 0.0 | 9.7 | 0.00 | 0.36 | 0.00 | 44 | 1009.8 |
| 20260505163100 | 22 | 14 | 0.0 | 3.2 | 0.00 | 0.36 | 0.00 | 44 | 1009.7 |
| 20260505161619 | 21 | 13 | 0.0 | 6.4 | 0.00 | 0.36 | 0.00 | 47 | 1010.0 |
| 20260505153049 | 19 | 17 | 0.0 | 19.3 | 0.00 | 0.69 | 0.00 | 52 | 1010.0 |
| 20260505151543 | 18 | 15 | 0.0 | 16.1 | 0.00 | 0.69 | 0.00 | 51 | 1010.2 |
| 20260505124515 | 14 | 15 | 0.0 | 6.4 | 0.00 | 1.24 | 0.00 | 53 | 1010.3 |
| 20260505123011 | 13 | 14 | 0.0 | 9.7 | 0.00 | 1.24 | 0.00 | 55 | 1010.1 |
| 20260505121510 | 13 | 15 | 0.0 | 6.4 | 0.00 | 1.24 | 0.00 | 57 | 1010.0 |
| 20260505120016 | 13 | 15 | 0.0 | 8.0 | 0.00 | 1.32 | 0.00 | 58 | 1009.9 |
| 20260505114502 | 12 | 13 | 0.0 | 8.0 | 0.00 | 1.32 | 0.00 | 59 | 1009.6 |
| 20260505113057 | 12 | 14 | 0.0 | 8.0 | 0.00 | 1.32 | 0.00 | 61 | 1009.6 |
| 20260505111554 | 11 | 16 | 0.0 | 8.0 | 0.00 | 1.32 | 0.00 | 62 | 1009.4 |